[[{"header":{"parameterUnit":"m.s-1","parameterCategory":2,"la1":30.2992,"la2":30.254,"lo1":-89.0895,"lo2":-89.0443,"dy":0.0025,"dx":0.0025,"nx":19,"ny":19,"refTime":"2026-05-03T03:00:00:Z","depth":"0","parameterNumber":2,"parameterNumberName":"U-component_of_CURRENTS"},"data":[0,0,0,0.343,0.3434,0.3673,0.3674,0.4043,0.4046,0,0,0,0,0,0,0,0,0,0,0,0.3355,0.3356,0.343,0.3434,0.3673,0.3675,0.4042,0.4046,0,0,0,0,0,0,0,0,0,0,0,0.3354,0.3356,0.3357,0.3435,0.3673,0.3675,0.4042,0.3856,0,0,0,0,0,0,0,0,0,0,0.362,0.3532,0.3355,0.3357,0.3436,0.3672,0.3675,0.3847,0.3868,0.394,0,0.3957,0,0.3991,0.4068,0.4069,0,0,0,0.3476,0.3514,0.3565,0.3357,0.3438,0.3672,0.3577,0.3858,0.3882,0.3967,0.3962,0.3975,0.3997,0.407,0.4072,0.4357,0.4357,0,0,0.3463,0.3424,0.3548,0.3578,0.3476,0.3569,0.3584,0.3872,0.3896,0.3963,0.3984,0.4003,0.4073,0.4075,0.4356,0.4357,0,0,0,0.3397,0.3414,0.3458,0.3564,0.3592,0.3575,0.3592,0.3885,0.3894,0.3988,0.4007,0.4075,0.4079,0.4356,0.4357,0.4356,0,0,0,0.3391,0.3373,0.3451,0.3435,0.3585,0.3733,0.3598,0.3875,0.3908,0.4006,0.4075,0.4082,0.4355,0.4356,0.4354,0.4436,0,0,0,0.3348,0.3369,0.3385,0.3431,0.3513,0.3728,0.3758,0.3883,0.3918,0.407,0.4083,0.4354,0.4356,0.4353,0.4431,0.4528,0,0,0,0.3318,0.3369,0.3384,0.3483,0.351,0.3716,0.3756,0.3935,0.4068,0.4076,0.4355,0.4356,0.4353,0.4429,0.4525,0.4525,0.4543,0,0,0.337,0.3375,0.3443,0.3462,0.3636,0.3687,0.3881,0.4051,0.4109,0.4271,0.4278,0.4355,0.4431,0.4528,0.4611,0.4626,0,0,0,0.3455,0.3493,0.3562,0.3658,0.379,0.3914,0.4045,0.4109,0.4251,0.4184,0.4386,0.4437,0.4496,0.4488,0.4501,0.4319,0.4363,0.4363,0.4363,0.3481,0.3559,0.368,0.3786,0.3909,0.4085,0.4206,0.4305,0.4326,0.4366,0.4454,0.4565,0.4553,0.4563,0.4374,0.4433,0.4433,0.4433,0.4433,0.3589,0.3656,0.3747,0.388,0.3992,0.4141,0.4347,0.4382,0.4557,0.4504,0.4558,0.4512,0.4577,0.437,0.4434,0.4434,0.4434,0.4433,0.4433,0.3615,0.3644,0.3716,0.3869,0.4009,0.4174,0.4369,0.4514,0.4613,0.4686,0.4713,0.4712,0.4521,0.4702,0.4702,0.4703,0.4704,0.4704,0.4705,0.3592,0.3661,0.3734,0.3874,0.3946,0.4117,0.4407,0.4556,0.4756,0.4798,0.4797,0.4547,0.465,0.4629,0.4717,0.4715,0.4713,0.4712,0.4711,0.3621,0.3627,0.3748,0.3813,0.3964,0.4036,0.4327,0.4623,0.481,0.49,0.4694,0.4857,0.4888,0.4876,0.4863,0.5008,0.5008,0.5008,0.5008,0.3596,0.3627,0.3744,0.3829,0.3921,0.4011,0.4142,0.4399,0.4637,0.4665,0.471,0.4564,0.456,0.4563,0.4558,0.4535,0.4593,0.4592,0.4591,0.3603,0.366,0.3711,0.3803,0.3881,0.3929,0.3941,0.4007,0.4327,0.4553,0.4459,0.4476,0.4234,0.4243,0.422,0.4228,0.4182,0,0]},{"header":{"parameterUnit":"m.s-1","parameterCategory":2,"la1":30.2992,"la2":30.254,"lo1":-89.0895,"lo2":-89.0443,"dy":0.0025,"dx":0.0025,"nx":19,"ny":19,"refTime":"2026-05-03T03:00:00:Z","depth":"0","parameterNumber":3,"parameterNumberName":"V-component_of_CURRENTS"},"data":[0,0,0,0.0215,0.0214,0.0116,0.0115,-0.0068,-0.007,0,0,0,0,0,0,0,0,0,0,0,0.025,0.025,0.0215,0.0214,0.0116,0.0115,-0.0068,-0.007,0,0,0,0,0,0,0,0,0,0,0,0.025,0.025,0.025,0.0213,0.0116,0.0115,-0.0067,0.0014,0,0,0,0,0,0,0,0,0,0,0.0114,0.0159,0.025,0.025,0.0213,0.0116,0.0115,0.0019,0.0009,-0.0032,0,-0.0027,0,-0.0043,-0.0081,-0.0081,0,0,0,0.0187,0.0167,0.0151,0.025,0.0213,0.0117,0.0152,0.0014,0.0003,-0.0045,-0.003,-0.0036,-0.0046,-0.0082,-0.0083,-0.0095,-0.0094,0,0,0.0192,0.0213,0.0159,0.0145,0.0212,0.0156,0.015,0.0008,-0.0,-0.003,-0.004,-0.0049,-0.0083,-0.0084,-0.0096,-0.0095,0,0,0,0.0226,0.0217,0.0205,0.0152,0.0145,0.0154,0.0147,0.0005,0.0005,-0.0042,-0.0051,-0.0084,-0.0086,-0.0098,-0.0096,0.0083,0,0,0,0.0228,0.0239,0.0208,0.0216,0.0149,0.0081,0.0148,0.0015,-0.0002,-0.005,-0.0084,-0.0087,-0.0099,-0.0097,0.0075,0.0216,0,0,0,0.025,0.024,0.024,0.0218,0.0189,0.0083,0.0073,0.0011,-0.0006,-0.0081,-0.0088,-0.01,-0.0097,0.0069,0.0203,0.035,0,0,0,0.0259,0.028,0.024,0.0254,0.019,0.0181,0.0074,0.0026,-0.0028,-0.0085,-0.0099,-0.0096,0.0067,0.0194,0.0341,0.0533,0.0592,0,0,0.0295,0.0284,0.0293,0.0256,0.0305,0.019,0.0233,0.0103,0.0001,-0.0064,-0.0065,0.0078,0.0202,0.0348,0.0685,0.074,0,0,0,0.031,0.0335,0.0333,0.0352,0.0321,0.0352,0.0221,0.0182,0.0126,-0.0014,0.0081,0.0155,0.0242,0.0337,0.0381,0.0127,-0.0084,-0.0084,-0.0084,0.04,0.0402,0.0467,0.0483,0.0481,0.045,0.0464,0.0398,0.0235,0.0253,0.0301,0.0543,0.0645,0.068,0.0415,0.0266,0.0267,0.0267,0.0268,0.0514,0.0574,0.0603,0.0663,0.0701,0.0735,0.0714,0.0643,0.0667,0.0487,0.056,0.0522,0.0739,0.0439,0.0279,0.0277,0.0276,0.0275,0.0274,0.06,0.0644,0.0679,0.0811,0.0941,0.0944,0.1129,0.1034,0.0892,0.0949,0.1017,0.1014,0.0754,0.0955,0.0957,0.0958,0.0959,0.096,0.0961,0.0677,0.0732,0.0857,0.0978,0.1101,0.1265,0.1373,0.1444,0.1429,0.129,0.129,0.0832,0.0754,0.0731,0.0981,0.0977,0.0975,0.0973,0.0971,0.079,0.0822,0.1012,0.1141,0.1427,0.1693,0.1779,0.1984,0.1987,0.202,0.1383,0.1466,0.1444,0.1407,0.14,0.1809,0.1809,0.1809,0.1809,0.0875,0.0902,0.1182,0.1416,0.1689,0.1895,0.2305,0.2424,0.2092,0.183,0.1578,0.1391,0.1368,0.1323,0.1289,0.127,0.1637,0.1636,0.1635,0.0974,0.105,0.1271,0.1496,0.1811,0.213,0.2536,0.2719,0.2121,0.1586,0.119,0.1198,0.0863,0.0848,0.0717,0.0689,0.0635,0,0]}],[{"header":{"parameterUnit":"m.s-1","parameterCategory":2,"la1":30.2992,"la2":30.254,"lo1":-89.0895,"lo2":-89.0443,"dy":0.0025,"dx":0.0025,"nx":19,"ny":19,"refTime":"2026-05-03T03:00:00:Z","depth":"2","parameterNumber":2,"parameterNumberName":"U-component_of_CURRENTS"},"data":[0,0,0,0.2866,0.2869,0.295,0.295,0.3287,0.3291,0,0,0,0,0,0,0,0,0,0,0,0.2833,0.2834,0.2866,0.2869,0.295,0.295,0.3287,0.3292,0,0,0,0,0,0,0,0,0,0,0,0.2832,0.2834,0.2836,0.287,0.295,0.295,0.3286,0.3158,0,0,0,0,0,0,0,0,0,0,0.3047,0.2966,0.2834,0.2836,0.287,0.295,0.295,0.3149,0.3166,0.3328,0,0.336,0,0.3361,0.3322,0.3324,0,0,0,0.2835,0.295,0.3013,0.2836,0.2871,0.2951,0.2904,0.3157,0.3177,0.3352,0.3364,0.3375,0.3367,0.3325,0.3328,0.3952,0.3955,0,0,0.2831,0.2814,0.2999,0.3026,0.2927,0.2902,0.2907,0.3165,0.3185,0.3365,0.3382,0.3372,0.3329,0.3332,0.3949,0.3953,0,0,0,0.2841,0.281,0.2859,0.3014,0.3026,0.2905,0.2911,0.3171,0.32,0.3386,0.3376,0.3331,0.3337,0.3945,0.395,0.3886,0,0,0,0.2836,0.2819,0.2857,0.2842,0.302,0.3062,0.2911,0.318,0.3209,0.3374,0.3331,0.3341,0.3941,0.3948,0.3879,0.3882,0,0,0,0.2823,0.2816,0.2843,0.2842,0.2897,0.3057,0.3094,0.3183,0.3208,0.3324,0.3343,0.3939,0.3947,0.3873,0.3874,0.3978,0,0,0,0.2777,0.2829,0.2843,0.2922,0.2897,0.3125,0.3091,0.3306,0.3433,0.3334,0.3942,0.395,0.3872,0.3869,0.3972,0.3724,0.3731,0,0,0.2816,0.2833,0.2887,0.2904,0.306,0.3109,0.3356,0.3521,0.3605,0.3858,0.3871,0.3881,0.3873,0.3977,0.4188,0.4178,0,0,0,0.2884,0.2921,0.2985,0.3066,0.3229,0.3381,0.3571,0.3654,0.3853,0.3718,0.4065,0.4067,0.4129,0.3975,0.3972,0.3988,0.3987,0.3986,0.3985,0.289,0.2961,0.308,0.3219,0.3381,0.3649,0.3792,0.397,0.4046,0.4154,0.4145,0.437,0.4212,0.4205,0.4287,0.4286,0.4286,0.4286,0.4286,0.2972,0.3044,0.3158,0.3292,0.3483,0.372,0.4008,0.4081,0.4317,0.4284,0.4347,0.4082,0.4195,0.4285,0.4285,0.4285,0.4285,0.4286,0.4286,0.2974,0.302,0.3098,0.3294,0.3484,0.375,0.3961,0.4148,0.4298,0.4387,0.4305,0.4301,0.4257,0.444,0.4441,0.4441,0.4442,0.4442,0.4443,0.2941,0.3027,0.3142,0.331,0.3427,0.3606,0.3931,0.4072,0.4237,0.4303,0.4301,0.4425,0.442,0.4278,0.4451,0.4449,0.4448,0.4448,0.4447,0.2942,0.2968,0.315,0.3255,0.3476,0.3483,0.3765,0.3932,0.414,0.4153,0.4265,0.4267,0.4278,0.428,0.4143,0.4271,0.4271,0.4271,0.4271,0.2898,0.2945,0.3153,0.332,0.3439,0.3458,0.3427,0.3471,0.3736,0.3788,0.3809,0.3649,0.3666,0.3637,0.3654,0.3502,0.3464,0.3462,0.3461,0.2881,0.2973,0.3076,0.3278,0.3404,0.3349,0.3104,0.2889,0.3072,0.3429,0.3663,0.4218,0.4032,0.4041,0.4037,0.4047,0.3821,0,0]},{"header":{"parameterUnit":"m.s-1","parameterCategory":2,"la1":30.2992,"la2":30.254,"lo1":-89.0895,"lo2":-89.0443,"dy":0.0025,"dx":0.0025,"nx":19,"ny":19,"refTime":"2026-05-03T03:00:00:Z","depth":"2","parameterNumber":3,"parameterNumberName":"V-component_of_CURRENTS"},"data":[0,0,0,0.0112,0.0111,0.0037,0.0036,-0.0175,-0.0176,0,0,0,0,0,0,0,0,0,0,0,0.0137,0.0137,0.0112,0.0111,0.0037,0.0036,-0.0174,-0.0176,0,0,0,0,0,0,0,0,0,0,0,0.0137,0.0137,0.0137,0.0111,0.0037,0.0036,-0.0174,-0.0094,0,0,0,0,0,0,0,0,0,0,-0.0009,0.0039,0.0137,0.0137,0.0111,0.0037,0.0036,-0.0089,-0.0099,-0.0167,0,-0.0162,0,-0.0168,-0.0191,-0.0192,0,0,0,0.0089,0.0048,0.003,0.0137,0.011,0.0037,0.0064,-0.0094,-0.0105,-0.0181,-0.0165,-0.0172,-0.0171,-0.0193,-0.0194,-0.0246,-0.0245,0,0,0.0094,0.0111,0.0039,0.0024,0.0109,0.0067,0.0062,-0.01,-0.0109,-0.0165,-0.0176,-0.0175,-0.0194,-0.0196,-0.0247,-0.0245,0,0,0,0.012,0.0114,0.0102,0.0032,0.0031,0.0065,0.006,-0.0101,-0.0104,-0.0179,-0.0177,-0.0195,-0.0198,-0.0248,-0.0246,-0.0047,0,0,0,0.0121,0.0131,0.0105,0.0112,0.0036,-0.002,0.0062,-0.0093,-0.011,-0.0176,-0.0195,-0.02,-0.0249,-0.0247,-0.0055,0.0055,0,0,0,0.0137,0.0132,0.0131,0.0114,0.0092,-0.0016,-0.0029,-0.0096,-0.011,-0.0192,-0.0201,-0.025,-0.0247,-0.0062,0.0041,0.016,0,0,0,0.0146,0.0166,0.0132,0.0149,0.0094,0.0076,-0.0027,-0.0098,-0.0165,-0.0197,-0.0249,-0.0246,-0.0064,0.0033,0.0151,0.0171,0.0212,0,0,0.018,0.017,0.0181,0.0149,0.0216,0.0083,0.0121,-0.0034,-0.0141,-0.0212,-0.0212,-0.0052,0.004,0.0158,0.0319,0.0356,0,0,0,0.0198,0.022,0.0226,0.0255,0.0222,0.0246,0.0089,0.0052,-0.0003,-0.0161,-0.0056,-0.0004,0.0064,0.0057,0.0087,-0.0234,-0.0234,-0.0235,-0.0235,0.0266,0.0284,0.0351,0.0377,0.0377,0.0327,0.0331,0.0257,0.0094,0.0119,0.0156,0.038,0.0374,0.0397,0.0138,0.0138,0.0139,0.014,0.014,0.0363,0.0416,0.047,0.0539,0.0581,0.06,0.0578,0.0502,0.0516,0.0359,0.0414,0.0264,0.0442,0.0156,0.0153,0.0151,0.0149,0.0148,0.0147,0.0419,0.0462,0.0504,0.0648,0.0772,0.0778,0.0932,0.084,0.0729,0.0772,0.0702,0.0697,0.0514,0.077,0.0771,0.0772,0.0773,0.0774,0.0775,0.0461,0.0522,0.0632,0.0763,0.0882,0.1031,0.1118,0.1157,0.1079,0.0943,0.0942,0.0592,0.0571,0.0549,0.0791,0.0788,0.0786,0.0784,0.0783,0.0537,0.0561,0.0733,0.0853,0.1122,0.1357,0.1422,0.1503,0.1475,0.1442,0.1037,0.1026,0.0965,0.0937,0.0922,0.1247,0.1247,0.1247,0.1247,0.0585,0.0609,0.085,0.1055,0.1309,0.1505,0.1781,0.1724,0.1512,0.13,0.1297,0.1146,0.1127,0.1062,0.1031,0.1012,0.1362,0.1362,0.1362,0.0653,0.072,0.09,0.1097,0.1394,0.1689,0.1933,0.1841,0.1459,0.1363,0.1278,0.1262,0.1023,0.0999,0.0873,0.0836,0.0793,0,0]}],[{"header":{"parameterUnit":"m.s-1","parameterCategory":2,"la1":30.2992,"la2":30.254,"lo1":-89.0895,"lo2":-89.0443,"dy":0.0025,"dx":0.0025,"nx":19,"ny":19,"refTime":"2026-05-03T03:00:00:Z","depth":"4","parameterNumber":2,"parameterNumberName":"U-component_of_CURRENTS"},"data":[0,0,0,0.1722,0.1723,0.1732,0.1731,0.1693,0.1693,0,0,0,0,0,0,0,0,0,0,0,0.1717,0.1718,0.1722,0.1723,0.1732,0.1731,0.1693,0.1693,0,0,0,0,0,0,0,0,0,0,0,0.1717,0.1718,0.1719,0.1724,0.1732,0.1731,0.1693,0.1691,0,0,0,0,0,0,0,0,0,0,0.1685,0.17,0.1718,0.1719,0.1724,0.1732,0.1731,0.1691,0.1691,0.1686,0,0.1714,0,0.1719,0.1692,0.1692,0,0,0,0.1689,0.17,0.1711,0.1719,0.1724,0.1732,0.1718,0.1691,0.1691,0.1686,0.1713,0.1712,0.1718,0.1692,0.1692,0.1823,0.1825,0,0,0.1689,0.1702,0.1711,0.1712,0.1761,0.1718,0.1719,0.1691,0.17,0.1713,0.1712,0.1717,0.1692,0.1692,0.1822,0.1824,0,0,0,0.171,0.1702,0.1713,0.1713,0.1728,0.1719,0.172,0.17,0.1708,0.1711,0.1717,0.1692,0.1692,0.182,0.1823,0.1971,0,0,0,0.1708,0.1717,0.1713,0.1718,0.173,0.1722,0.173,0.1709,0.1707,0.1717,0.1692,0.1692,0.1819,0.1821,0.1963,0.1901,0,0,0,0.1711,0.1717,0.173,0.172,0.174,0.1723,0.1727,0.1708,0.1712,0.1692,0.1692,0.1817,0.1821,0.1957,0.1894,0.2094,0,0,0,0.1703,0.1705,0.1731,0.1692,0.1741,0.1695,0.1727,0.1703,0.1685,0.1692,0.1819,0.1822,0.1954,0.1889,0.2087,0.1726,0,0,0,0.1688,0.1704,0.1663,0.1685,0.1662,0.169,0.1714,0.1728,0.1751,0.1814,0.1817,0.1966,0.1893,0.2093,0.1939,0,0,0,0,0.1639,0.1645,0.1615,0.1624,0.1601,0.1688,0.1714,0.1782,0.1928,0.1768,0.1997,0.1943,0.2067,0.1838,0.184,0.1839,0.1839,0.1838,0.1838,0.1644,0.1625,0.1606,0.1624,0.1637,0.1712,0.1787,0.1922,0.194,0.2087,0.2095,0.2361,0.2128,0.2192,0.2193,0.2194,0.2195,0.2195,0.2196,0.1606,0.1577,0.1653,0.1659,0.1768,0.1856,0.1998,0.2086,0.2289,0.225,0.2372,0.204,0.2211,0.2208,0.2206,0.2204,0.2203,0.2202,0.2201,0.1565,0.1566,0.162,0.1691,0.1868,0.1992,0.2136,0.2251,0.241,0.2481,0.2357,0.2465,0.2424,0.2645,0.2646,0.2646,0.2647,0.2647,0.2648,0.1491,0.1543,0.1549,0.1692,0.1804,0.2008,0.2222,0.2316,0.248,0.2401,0.2558,0.2511,0.2497,0.2451,0.2658,0.2657,0.2655,0.2654,0.2653,0.1384,0.1392,0.1391,0.146,0.1671,0.1804,0.2117,0.2263,0.2387,0.2402,0.241,0.2419,0.2326,0.2317,0.2259,0.2418,0.2414,0.2411,0,0.1295,0.1284,0.123,0.1237,0.1349,0.1629,0.1751,0.195,0.2114,0.2055,0.234,0.234,0.2347,0.2226,0.2212,0.2135,0,0,0,0.1215,0.1206,0.1123,0.1085,0.1166,0.1453,0.1776,0.1758,0.2161,0.2114,0.2313,0.2339,0.2425,0.269,0.2569,0.2551,0.247,0,0]},{"header":{"parameterUnit":"m.s-1","parameterCategory":2,"la1":30.2992,"la2":30.254,"lo1":-89.0895,"lo2":-89.0443,"dy":0.0025,"dx":0.0025,"nx":19,"ny":19,"refTime":"2026-05-03T03:00:00:Z","depth":"4","parameterNumber":3,"parameterNumberName":"V-component_of_CURRENTS"},"data":[0,0,0,0.0161,0.0162,0.02,0.02,0.0267,0.0267,0,0,0,0,0,0,0,0,0,0,0,0.0146,0.0146,0.0161,0.0162,0.02,0.02,0.0266,0.0267,0,0,0,0,0,0,0,0,0,0,0,0.0146,0.0146,0.0146,0.0162,0.02,0.02,0.0266,0.0233,0,0,0,0,0,0,0,0,0,0,0.0194,0.0184,0.0146,0.0146,0.0162,0.02,0.0201,0.0232,0.0236,0.0253,0,0.0257,0,0.0264,0.0272,0.0272,0,0,0,0.0164,0.0181,0.0185,0.0146,0.0162,0.02,0.0183,0.0234,0.0238,0.0258,0.0258,0.0261,0.0265,0.0272,0.0273,0.0358,0.0359,0,0,0.0162,0.0161,0.0181,0.0187,0.0171,0.0182,0.0185,0.0236,0.0244,0.0258,0.0262,0.0266,0.0273,0.0273,0.0358,0.0358,0,0,0,0.0154,0.016,0.0162,0.0184,0.0191,0.0183,0.0186,0.0242,0.0241,0.0263,0.0267,0.0273,0.0274,0.0357,0.0358,0.0421,0,0,0,0.0153,0.0155,0.0161,0.0163,0.0189,0.0217,0.0191,0.0237,0.0243,0.0267,0.0273,0.0275,0.0357,0.0358,0.0418,0.0444,0,0,0,0.0145,0.0155,0.0157,0.0162,0.0177,0.0216,0.0218,0.0239,0.0246,0.0272,0.0275,0.0357,0.0358,0.0416,0.044,0.0445,0,0,0,0.0146,0.0171,0.0157,0.0203,0.0177,0.0265,0.0218,0.0287,0.032,0.0273,0.0357,0.0358,0.0415,0.0438,0.0443,0.0454,0,0,0,0.0181,0.0175,0.0208,0.0196,0.0289,0.026,0.0346,0.0359,0.0333,0.034,0.0342,0.0419,0.044,0.0444,0.0513,0,0,0,0,0.0223,0.0242,0.0273,0.032,0.037,0.04,0.0418,0.0401,0.04,0.0353,0.0422,0.0433,0.0434,0.0434,0.0363,0.0363,0.0363,0.0363,0.0362,0.0254,0.0294,0.0371,0.0423,0.0473,0.0511,0.052,0.0493,0.048,0.0474,0.0487,0.0537,0.0542,0.0489,0.0489,0.049,0.049,0.049,0.049,0.0325,0.0377,0.0432,0.0518,0.0558,0.0627,0.0613,0.0587,0.0568,0.0536,0.0533,0.0505,0.0497,0.0495,0.0494,0.0494,0.0493,0.0493,0.0493,0.035,0.0384,0.0441,0.0563,0.0652,0.0695,0.0747,0.0703,0.063,0.0632,0.0613,0.0571,0.0561,0.0633,0.0633,0.0633,0.0633,0.0633,0.0633,0.0352,0.0413,0.0506,0.0617,0.0711,0.0804,0.0825,0.0804,0.0726,0.0685,0.0653,0.0584,0.058,0.0568,0.0636,0.0635,0.0635,0.0635,0.0635,0.039,0.042,0.0558,0.0657,0.0852,0.0914,0.0938,0.0867,0.083,0.0754,0.0694,0.0691,0.0661,0.0654,0.0644,0.0737,0.0737,0.0737,0,0.0411,0.0434,0.0631,0.0786,0.0932,0.0987,0.0994,0.0948,0.0813,0.0813,0.0799,0.0736,0.0732,0.0701,0.0695,0.0686,0,0,0,0.0449,0.0513,0.0652,0.0811,0.0978,0.0992,0.0998,0.0959,0.0855,0.0789,0.0747,0.0745,0.07,0.0643,0.0588,0.0582,0.056,0,0]}]]